Weather Roundup
Issued by NWS Chicago, IL

Home | Current Version | Previous Version | Text Only | Print | Product List | Glossary On
Versions: 1 2 3 4 5 6 7 8 9 10 11 12 13 14 15 16 17 18 19 20 21 22 23 24 25 26 27 28 29 30 31 32 33 34 35 36 37 38 39 40 41 42 43 44 45 46 47 48 49 50
000
NZUS59 KLOT 221500
HRRLOT

CHICAGO AREA WEATHER ROUNDUP
NATIONAL WEATHER SERVICE CHICAGO/ROMEOVILLE IL
900 AM CST MON DEC 22 2014

NOTE: "FAIR" INDICATES FEW OR NO CLOUDS BELOW 12,000 FEET WITH NO
SIGNIFICANT WEATHER AND/OR OBSTRUCTIONS TO VISIBILITY.

* THESE STATIONS ARE NOT UNDER NWS QUALITY CONTROL. THEY ALSO MAY NOT
  REPORT WEATHER SUCH AS PRECIPITATION OR FOG.

ILZ005-006-012>014-019>023-221600-
NORTHEAST ILLINOIS

CITY           SKY/WX    TMP DP  RH WIND       PRES   REMARKS
OHARE          CLOUDY    33  27  78 SE10      29.90F WCI  25
MIDWAY         CLOUDY    34  28  79 SE12      29.90F WCI  25
AURORA         CLOUDY    34  27  75 E10       29.87F HAZE    WCI  26
WAUKEGAN       CLOUDY    34  30  85 E13       29.89F FOG     WCI  25
DUPAGE AIRPORT CLOUDY    33  27  78 E8        29.87F HAZE    WCI  26
WHEELING       CLOUDY    33  28  81 SE5       29.91F HAZE    WCI  29
NORTHERLY IS     N/A     33  29  85 SE12        N/A  WCI  24
$$

WIZ051-052-058>065-066-070>072-221600-
SOUTHEAST WISCONSIN

CITY           SKY/WX    TMP DP  RH WIND       PRES   REMARKS
MILWAUKEE      PTSUNNY   37  31  78 SE13      29.91F HAZE
KENOSHA*       CLOUDY    35  31  85 SE10      29.90F FOG     WCI  27
RACINE*        CLOUDY    36  31  82 SE12      29.93F
WAUKESHA       CLOUDY    32  28  86 SE8       29.90F FOG     WCI  25
$$

INZ001>003-010>013-019-020-221600-
NORTHWEST INDIANA

CITY           SKY/WX    TMP DP  RH WIND       PRES   REMARKS
GARY*          CLOUDY    34  25  69 SE13      29.92F WCI  25
MICHIGAN CITY* NOT AVBL
RENSSELAER*    NOT AVBL
$$

LMZ740>746-221600-
SOUTHERN LAKE MICHIGAN

STATION/POSITION TIME  SKY/WX   TEMP WIND        PRES    VSBY
                                AIR  DIR/SP/G
                 (UTC)          (F)  (DEG/KT/KT) (MB)    (MI)
HARRISON CRIB    1400            33  150/ 15/ 18   N/A
BURNHAM HARBOR   1500            33  120/  9/ 12   N/A
CALUMET HARBOR   1400            33  120/  7/ 10 1011.8F
BURNS HARBOR     NOT AVBL
MICHIGAN CITY    NOT AVBL
$$

ABBREVIATIONS USED IN REMARKS
   TC - TEMPERATURE IN CELSIUS
  WCI - WIND CHILL INDEX
   HX - HEAT INDEX
  VSB - VISIBILITY
$$


USA.gov is the U.S. government's official web portal to all federal, state and local government web resources and services.